EW4261 Weather Reports


time (UTC)temp
C
wind
direction
speed
KPH
gust
KPH
rain 1hr
cm
rain 24hr
cm
rain mn
cm
humidity
%
barometer
mb
20260505224544 27 168 9.7 25.7 0.00 0.00 0.00 78 1005.7
20260505223053 27 147 12.9 25.7 0.00 0.00 0.00 78 1005.5
20260505221543 27 180 8.0 27.4 0.00 0.00 0.00 78 1005.4
20260505220043 28 198 8.0 24.1 0.00 0.00 0.00 78 1005.7
20260505214552 28 162 16.1 25.7 0.00 0.00 0.00 78 1005.7
20260505213038 28 176 11.3 27.4 0.00 0.00 0.00 78 1005.9
20260505211542 28 160 14.5 30.6 0.00 0.00 0.00 78 1006.2
20260505210034 28 171 12.9 27.4 0.00 0.00 0.00 77 1006.4
20260505204534 28 177 11.3 25.7 0.00 0.00 0.00 78 1006.5
20260505203049 28 167 12.9 27.4 0.00 0.00 0.00 75 1006.8
20260505201529 28 194 11.3 32.2 0.00 0.00 0.00 76 1007.0
20260505200027 28 230 16.1 30.6 0.00 0.00 0.00 77 1006.9
20260505194525 28 138 14.5 30.6 0.00 0.00 0.00 77 1007.4
20260505193024 28 167 12.9 30.6 0.00 0.00 0.00 77 1007.5
20260505191523 28 192 14.5 25.7 0.00 0.00 0.00 78 1007.7
20260505190019 27 236 11.3 25.7 0.00 0.00 0.00 80 1007.7
20260505184525 27 231 11.3 27.4 0.00 0.00 0.00 80 1007.8
20260505183021 27 161 12.9 33.8 0.00 0.00 0.00 82 1007.9
20260505181516 27 152 9.7 25.7 0.00 0.00 0.00 82 1008.1
20260505180014 27 201 8.0 25.7 0.00 0.00 0.00 81 1008.1
20260505174512 26 263 9.7 25.7 0.00 0.00 0.00 83 1008.3
20260505173010 26 221 11.3 20.9 0.00 0.00 0.00 83 1008.4
20260505171508 26 160 8.0 17.7 0.00 0.00 0.00 86 1008.4
20260505170010 25 94 8.0 24.1 0.00 0.00 0.00 85 1008.6
20260505164507 25 259 6.4 24.1 0.00 0.00 0.00 87 1008.6
20260505163004 25 205 14.5 27.4 0.00 0.00 0.00 87 1008.7
20260505161501 25 207 8.0 25.7 0.00 0.00 0.00 89 1008.7
20260505153056 23 175 6.4 19.3 0.00 0.00 0.00 90 1008.5
20260505151554 23 209 8.0 20.9 0.00 0.00 0.00 90 1008.3
20260505124536 21 183 8.0 17.7 0.00 0.00 0.00 96 1008.1
20260505123034 21 182 9.7 17.7 0.00 0.00 0.00 96 1007.9
20260505121633 21 163 8.0 19.3 0.00 0.00 0.00 96 1007.7
20260505120031 21 215 8.0 19.3 0.00 0.00 0.00 96 1007.8
20260505114529 21 159 4.8 16.1 0.00 0.00 0.00 96 1007.5
20260505113038 21 163 8.0 17.7 0.00 0.00 0.00 96 1007.6
20260505111539 20 181 4.8 16.1 0.00 0.00 0.00 96 1007.8
20260505101531 20 141 6.4 16.1 0.00 0.00 0.00 95 1007.8
20260505100021 20 165 4.8 16.1 0.00 0.00 0.00 95 1007.6
20260505094523 20 198 8.0 12.9 0.00 0.00 0.00 94 1007.7
20260505093018 20 171 6.4 12.9 0.00 0.00 0.00 94 1007.9
20260505091517 20 194 4.8 14.5 0.00 0.00 0.00 94 1007.8
20260505090017 20 153 4.8 11.3 0.00 0.00 0.00 94 1008.1
20260505084525 20 166 4.8 14.5 0.00 0.00 0.00 93 1008.2
20260505083012 20 187 4.8 11.3 0.00 0.00 0.00 93 1008.3
20260505081511 20 171 6.4 16.1 0.00 0.00 0.00 92 1008.4
20260505080021 20 178 6.4 14.5 0.00 0.00 0.00 92 1008.5
20260505074506 20 163 6.4 14.5 0.00 0.00 0.00 92 1008.7
20260505073006 20 170 8.0 14.5 0.00 0.00 0.00 91 1008.9
20260505071504 20 153 9.7 17.7 0.00 0.00 0.00 91 1008.9
20260505070002 20 189 6.4 16.1 0.00 0.00 0.00 90 1009.2
20260505064600 20 174 8.0 17.7 0.00 0.00 0.00 90 1009.2
20260505063059 20 170 11.3 19.3 0.00 0.00 0.00 89 1009.3
20260505061614 20 169 11.3 19.3 0.00 0.00 0.00 89 1009.2
20260505060059 20 169 11.3 20.9 0.00 0.00 0.00 88 1009.2
20260505054556 20 183 11.3 22.5 0.00 0.00 0.00 88 1009.4
20260505053051 21 173 11.3 27.4 0.00 0.00 0.00 87 1009.4
20260505051550 21 148 9.7 22.5 0.00 0.00 0.00 86 1009.7
20260505041548 21 162 12.9 24.1 0.00 0.00 0.00 83 1009.9
20260505040057 21 159 11.3 27.4 0.00 0.00 0.00 82 1009.9
20260505034544 21 240 11.3 24.1 0.00 0.00 0.00 81 1009.8
20260505033043 22 215 9.7 27.4 0.00 0.00 0.00 80 1009.9
20260505031550 22 169 11.3 30.6 0.00 0.00 0.00 80 1010.1
20260505030044 22 194 11.3 27.4 0.00 0.00 0.00 79 1010.0
20260505024541 22 157 11.3 22.5 0.00 0.00 0.00 78 1009.9
20260505023041 23 185 12.9 27.4 0.00 0.00 0.00 78 1009.6
20260505021540 23 179 11.3 32.2 0.00 0.00 0.00 77 1009.7
20260505020042 23 170 12.9 30.6 0.00 0.00 0.00 77 1009.5
20260505014541 23 162 16.1 30.6 0.00 0.00 0.00 77 1009.4
20260505013036 23 163 12.9 25.7 0.00 0.00 0.00 76 1009.4
20260505011538 23 161 11.3 20.9 0.00 0.00 0.00 76 1009.2
20260505010039 23 164 14.5 24.1 0.00 0.00 0.00 75 1009.1
20260505004534 23 141 12.9 25.7 0.00 0.00 0.00 74 1009.3
20260505003033 24 189 11.3 24.1 0.00 0.00 0.00 73 1009.3
20260505001533 24 173 11.3 24.1 0.00 0.00 0.00 73 1009.3
20260505000046 25 170 14.5 27.4 0.00 0.00 0.00 72 1009.4
20260504234533 25 165 12.9 27.4 0.00 0.00 0.00 71 1009.5
20260504233031 25 169 11.3 29.0 0.00 0.00 0.00 70 1009.4
20260504231529 25 185 11.3 24.1 0.00 0.00 0.00 68 1009.6
20260504230028 26 188 9.7 25.7 0.00 0.00 0.00 67 1009.7